Total_Precipitation_Accumulation
2.04 2.07 2.04 2.06 1.90 2.08 2.44 2.55 2.42 2.63 2.70 2.51 2.29 2.05 1.91 1.75 1.62 1.64 1.72 1.62 1.49 1.56 1.82 1.92 1.77 1.65 1.51 1.33 1.18 1.11 1.08 1.00 0.96 0.82 0.69 0.65 0.74 0.72 0.61 0.55 0.50 0.42 0.40
2.46 2.52 2.38 2.33 2.18 2.19 2.41 2.54 2.55 3.06 2.99 2.85 2.38 2.11 2.03 1.98 1.82 1.80 1.86 1.93 1.64 1.48 1.60 1.89 2.04 1.99 1.85 1.63 1.44 1.31 1.19 1.10 1.00 0.78 0.65 0.60 0.68 0.76 0.72 0.66 0.56 0.45 0.35
2.55 2.63 2.62 2.50 2.41 2.35 2.51 2.56 2.77 3.04 2.79 2.67 2.38 2.25 2.14 2.01 1.84 1.82 2.00 2.17 1.94 1.66 1.53 1.64 1.95 2.09 2.10 2.08 1.94 1.66 1.37 1.17 1.05 0.83 0.66 0.61 0.66 0.75 0.74 0.74 0.69 0.52 0.37
2.55 2.66 2.50 2.39 2.60 2.68 2.76 2.93 3.03 3.06 2.93 2.83 2.61 2.29 2.12 2.06 1.67 1.64 1.69 1.77 1.92 1.67 1.77 1.90 2.05 2.09 2.23 2.34 2.34 2.26 1.94 1.50 1.24 1.04 0.85 0.73 0.75 0.78 0.73 0.71 0.69 0.56 0.42
2.39 2.57 2.46 2.53 2.71 2.81 2.86 2.64 3.05 3.03 3.03 2.93 2.43 2.17 1.92 1.81 1.68 1.44 1.42 1.36 1.49 1.53 1.60 1.71 1.90 1.89 2.17 2.52 2.67 2.76 2.63 2.18 1.70 1.41 1.29 1.11 0.99 0.87 0.77 0.73 0.69 0.61 0.48
2.52 2.71 2.55 2.62 2.74 2.89 2.91 2.91 3.10 3.07 2.90 2.86 2.28 2.02 1.78 1.45 1.45 1.41 1.24 1.24 1.27 1.17 1.27 1.49 1.83 1.57 1.90 2.27 2.47 2.80 3.03 2.86 2.38 1.97 1.82 1.69 1.51 1.24 0.98 0.87 0.82 0.76 0.65
2.70 2.93 2.77 2.91 2.89 2.76 2.77 2.92 3.10 2.91 2.68 2.79 2.69 2.11 1.57 1.26 1.25 1.20 1.24 1.33 1.25 1.24 1.40 1.70 1.81 1.67 1.55 1.64 1.71 2.08 2.69 3.12 3.04 2.60 2.24 2.01 1.94 1.81 1.36 1.19 1.09 1.00 0.89
2.66 2.60 2.72 2.61 2.65 2.77 2.75 2.80 3.00 2.82 2.42 2.56 2.67 2.53 1.86 1.56 1.23 0.98 1.19 1.24 1.25 1.43 1.49 1.57 1.80 1.97 1.83 1.89 1.50 1.49 2.11 2.82 3.21 3.17 2.73 2.36 2.22 2.09 1.75 1.60 1.39 1.16 1.04
2.30 2.34 2.37 2.45 2.70 2.70 2.69 2.78 2.78 2.64 2.30 2.29 2.43 2.58 2.07 1.65 1.34 0.98 0.95 1.12 1.38 1.53 1.49 1.63 1.70 1.87 1.94 2.13 2.09 1.79 1.73 1.95 2.54 3.20 3.19 2.84 2.43 2.13 2.12 2.15 1.93 1.52 1.22
2.21 2.18 2.18 2.24 2.31 2.29 2.37 2.20 2.29 2.42 2.45 2.26 2.33 2.27 2.12 1.94 1.80 1.35 1.06 1.05 1.26 1.37 1.47 1.45 1.48 1.60 1.86 2.24 2.37 2.02 1.70 1.54 1.76 2.56 3.12 3.16 2.79 2.40 2.33 2.44 2.58 2.24 1.66
2.16 2.12 2.07 2.06 1.98 1.95 2.06 2.04 2.15 2.20 2.19 2.16 2.19 2.26 2.23 2.12 1.97 1.84 1.51 1.33 1.27 1.10 1.18 1.29 1.38 1.48 1.73 2.01 2.19 2.04 1.94 1.71 1.65 1.84 2.25 2.66 2.77 2.66 2.51 2.61 2.96 3.04 2.64
2.04 1.98 1.95 1.96 1.88 1.87 1.92 1.96 2.02 1.99 2.03 2.09 2.08 2.11 2.17 2.09 2.07 2.11 1.77 1.59 1.46 1.16 1.15 1.13 1.20 1.29 1.54 1.73 1.65 1.75 1.73 1.57 1.46 1.50 1.65 1.99 2.25 2.38 2.47 2.69 3.08 3.43 3.46
1.66 1.66 1.64 1.71 1.70 1.75 1.78 1.84 1.86 1.87 1.97 2.05 2.01 2.01 1.99 1.92 1.95 2.04 2.00 1.70 1.55 1.29 1.33 1.27 1.18 1.25 1.26 1.55 1.55 1.41 1.24 1.19 1.14 1.16 1.17 1.32 1.55 1.74 1.94 2.21 2.58 2.96 3.24
1.41 1.53 1.64 1.67 1.69 1.71 1.71 1.83 1.73 1.72 1.86 1.92 1.91 2.15 2.01 1.81 1.88 1.99 2.12 2.14 1.89 1.55 1.54 1.39 1.25 1.21 1.24 1.35 1.33 1.25 1.15 1.05 0.97 0.93 0.90 0.92 0.98 1.11 1.27 1.50 1.77 1.99 2.21
1.45 1.53 1.59 1.67 1.70 1.78 1.84 1.87 1.75 1.85 2.02 1.94 2.02 2.17 2.05 1.94 1.98 1.97 2.13 2.33 2.27 1.94 1.62 1.46 1.36 1.20 1.21 1.20 1.25 1.23 1.18 1.07 0.94 0.87 0.82 0.78 0.78 0.81 0.89 1.03 1.19 1.35 1.44
1.47 1.42 1.43 1.48 1.48 1.54 1.66 1.73 1.68 1.81 2.00 1.96 1.94 2.02 1.99 1.98 2.16 2.12 2.17 2.29 2.38 2.24 1.75 1.54 1.46 1.23 1.34 1.11 1.16 1.15 1.15 1.09 0.92 0.82 0.79 0.76 0.75 0.75 0.76 0.79 0.88 1.00 1.14
1.43 1.37 1.33 1.33 1.33 1.29 1.35 1.47 1.50 1.69 1.71 1.70 1.62 1.66 1.64 1.82 2.00 1.95 2.05 2.12 2.24 2.32 1.90 1.67 1.76 1.64 1.66 1.48 1.34 1.23 1.07 1.07 0.97 0.91 0.83 0.76 0.73 0.72 0.75 0.74 0.72 0.77 0.87
1.25 1.30 1.36 1.27 1.18 1.23 1.30 1.31 1.39 1.55 1.61 1.58 1.56 1.60 1.50 1.62 1.74 1.77 1.92 2.00 2.13 2.32 2.08 1.90 1.97 2.01 1.95 1.78 1.66 1.48 1.15 0.98 0.99 1.03 0.89 0.78 0.73 0.72 0.77 0.76 0.71 0.68 0.71
1.18 1.24 1.29 1.23 1.19 1.26 1.36 1.43 1.52 1.55 1.44 1.42 1.43 1.40 1.38 1.50 1.54 1.65 1.80 1.79 1.84 2.13 2.19 2.00 1.99 2.28 2.20 2.01 2.03 1.73 1.50 1.42 1.06 1.04 0.94 0.79 0.73 0.70 0.71 0.78 0.79 0.74 0.71
1.23 1.28 1.29 1.35 1.40 1.38 1.34 1.37 1.43 1.51 1.50 1.37 1.24 1.17 1.20 1.34 1.37 1.47 1.53 1.60 1.71 1.89 2.07 2.08 2.02 2.20 2.27 2.15 2.30 2.06 1.81 1.65 1.39 1.14 1.11 0.91 0.83 0.80 0.77 0.77 0.78 0.79 0.80
1.17 1.28 1.42 1.46 1.50 1.40 1.24 1.30 1.37 1.31 1.36 1.30 1.18 1.05 0.97 0.97 1.01 1.15 1.15 1.32 1.55 1.72 1.80 1.93 1.99 2.09 2.30 2.35 2.18 2.13 1.98 1.83 1.73 1.60 1.59 1.21 0.94 0.84 0.84 0.82 0.82 0.87 0.93
1.18 1.28 1.29 1.32 1.32 1.12 1.08 1.07 1.10 1.14 1.17 1.17 1.19 1.17 1.02 0.92 0.88 0.91 0.94 1.00 1.14 1.28 1.47 1.70 1.79 1.88 2.10 2.32 2.32 2.35 2.27 2.07 1.91 1.78 1.93 1.90 1.57 1.31 1.10 0.88 0.88 0.92 1.00
1.22 1.19 1.15 1.17 1.19 1.27 1.15 1.00 0.96 0.98 1.09 1.13 1.18 1.17 0.96 0.85 0.91 0.89 0.93 0.94 0.98 0.99 1.05 1.26 1.39 1.44 1.66 1.99 2.33 2.41 2.49 2.36 2.14 2.09 2.23 2.30 2.36 2.12 1.57 1.22 1.16 1.01 1.04
1.27 1.21 1.09 1.09 1.12 1.15 1.14 1.04 1.01 0.94 0.97 1.05 1.12 1.15 1.14 1.07 1.01 1.04 1.07 1.02 0.91 0.89 0.91 0.88 0.95 1.14 1.32 1.58 1.98 2.18 2.48 2.65 2.49 2.41 2.47 2.55 2.57 2.79 2.30 1.74 1.55 1.31 1.25
1.30 1.31 1.20 1.18 1.19 1.20 1.18 1.03 1.00 0.94 1.00 1.06 1.13 1.14 1.12 1.06 1.06 1.04 1.06 1.09 0.98 0.92 0.89 0.88 0.86 0.97 1.17 1.31 1.60 1.94 2.21 2.39 2.47 2.56 2.64 2.71 2.63 2.77 3.06 2.61 1.91 1.55 1.31
1.42 1.42 1.40 1.37 1.41 1.45 1.48 1.29 1.16 1.03 1.05 1.11 1.22 1.22 1.11 0.98 1.04 1.00 0.92 0.99 0.99 0.98 1.03 1.00 0.98 1.01 1.08 1.23 1.49 1.74 1.99 2.24 2.29 2.37 2.25 2.23 2.25 2.38 2.81 3.01 2.65 2.04 1.58